ROMMA est une association bénévole à but non lucratif. Votre soutien est indispensable : ADHERER à ROMMA ou FAIRE un DON

Eygliers - (05, Hautes-Alpes)

Guillestrois (965 m)   Longitude: 6° 38' 04" E   Latitude: 44° 40' 37" N Station partenaire n°53
 

Détail journalier du     <<     >>

Température Precipitation Humidité Vent Dir Rafale Dir. rafale Ensol.
Heure (°C) (mm) (%) (km/h) (km/h) (min)
01:00 3.60862E10E0
02:00 3.40862NNE10NE0
03:00 2.808706E0
04:00 2.60881ENE6ENE0
05:00 2.50875N13ESE0
06:00 2.30863NNE11NNE0
07:00 2.00852NNE6NNO0
08:00 2.40824NNE10NE0
09:00 5.20733E13NNE15
10:00 8.40525ESE15ESE60
11:00 10.80483S10S60
12:00 13.10397SE15S60
13:00 14.10429SSE26SO60
14:00 14.104217SO27SO60
15:00 14.204616SO27OSO60
16:00 13.105715SO29SO60
17:00 10.607213OSO29O25
18:00 9.70765NE13NNE0
19:00 8.10742SE11ESE0
20:00 8.10755ESE11SE0
21:00 8.40703NNE10E0
22:00 8.20685ESE16N0
23:00 8.50606SE18SSE0
minuit 7.90625ESE18NNO0

Graphique du 16-11-2018

 

Serveur OMMA